Location: Bothwell
(42.3833°S, 147.0000°E)
Time: 06:44:20
(UTC+10:00)

CUBESAT XI-V - Visible Passes

Search period start: 25 September 2022 00:00
Search period end: 05 October 2022 01:00
Orbit: 667 x 690 km, 98.1° (Epoch: 24 September)

Date Brightness Start Highest point End Pass type
(mag) Time Alt. Az. Time Alt. Az. Time Alt. Az.
25 Sep ? 01:39:03 10° SE 01:39:06 10° SE 01:39:06 10° SE visible
25 Sep ? 03:14:55 10° S 03:17:31 31° S 03:17:31 31° S visible
26 Sep ? 02:13:16 10° SSE 02:15:03 20° SE 02:15:03 20° SE visible
26 Sep ? 03:50:50 10° SSW 03:53:27 23° SW 03:53:27 23° SW visible
27 Sep ? 02:48:20 10° SSE 02:51:00 33° SSE 02:51:00 33° SSE visible
27 Sep ? 04:27:43 10° SW 04:29:23 12° SW 04:29:23 12° SW visible
28 Sep ? 01:47:31 10° SE 01:48:32 14° ESE 01:48:32 14° ESE visible
28 Sep ? 03:23:53 10° S 03:26:56 34° SSW 03:26:56 34° SSW visible
29 Sep ? 02:22:01 10° SSE 02:24:28 27° SE 02:24:28 27° SE visible
29 Sep ? 03:59:56 10° SSW 04:02:51 21° SW 04:02:51 21° SW visible
30 Sep ? 02:57:13 10° SSE 03:00:24 42° S 03:00:24 42° S visible
30 Sep ? 04:37:46 10° SW 04:38:27 10° WSW 04:38:47 10° WSW visible
01 Oct ? 01:56:04 10° SE 01:57:56 18° ESE 01:57:56 18° ESE visible
01 Oct ? 03:32:52 10° S 03:36:20 34° SW 03:36:20 34° SW visible
02 Oct ? 03:30:48 10° SSE 03:33:51 36° SE 03:33:51 36° SE visible
02 Oct ? 05:09:07 10° SSW 05:12:15 18° WSW 05:12:15 18° WSW visible
03 Oct ? 02:30:56 10° ESE 02:31:23 11° ESE 02:31:23 11° ESE visible
03 Oct ? 04:06:06 10° S 04:09:46 51° SSW 04:09:46 51° SSW visible
04 Oct ? 03:04:41 10° SE 03:07:18 24° ESE 03:07:18 24° ESE visible
04 Oct ? 04:41:52 10° S 04:45:41 31° WSW 04:45:41 31° WSW visible
